TimeEDT,TemperatureF,Dew PointF,Humidity,Sea Level PressureIn,VisibilityMPH,Wind Direction,Wind SpeedMPH,Gust SpeedMPH,PrecipitationIn,Events,Conditions,WindDirDegrees,DateUTC
12:01 AM,44.6,44.6,100,29.70,3.0,WNW,6.9,-,0.01,Rain,Rain,300,2013-11-02 04:01:00
12:26 AM,46.4,42.8,87,29.70,10.0,WNW,9.2,16.1,0.02,Rain,Light Rain,300,2013-11-02 04:26:00
12:53 AM,46.0,43.0,89,29.70,10.0,WNW,8.1,-,0.02,,Overcast,300,2013-11-02 04:53:00
1:15 AM,46.4,42.8,87,29.70,10.0,WNW,6.9,-,N/A,,Overcast,300,2013-11-02 05:15:00
1:53 AM,46.0,43.0,89,29.71,9.0,WNW,10.4,17.3,0.00,,Overcast,290,2013-11-02 05:53:00
2:53 AM,46.9,41.0,80,29.72,10.0,WNW,11.5,-,N/A,,Overcast,300,2013-11-02 06:53:00
3:53 AM,46.9,41.0,80,29.72,10.0,WNW,8.1,17.3,N/A,,Overcast,290,2013-11-02 07:53:00
4:53 AM,46.9,42.1,83,29.73,10.0,WNW,11.5,20.7,N/A,,Overcast,300,2013-11-02 08:53:00
5:01 AM,46.4,42.8,87,29.72,10.0,WNW,9.2,19.6,N/A,,Overcast,290,2013-11-02 09:01:00
5:14 AM,44.6,42.8,93,29.72,4.0,West,9.2,19.6,0.02,Rain,Rain,280,2013-11-02 09:14:00
5:21 AM,44.6,42.8,93,29.72,8.0,WNW,9.2,-,0.02,Rain,Light Rain,290,2013-11-02 09:21:00
5:34 AM,46.4,42.8,87,29.73,9.0,NW,11.5,17.3,0.02,Rain,Light Rain,310,2013-11-02 09:34:00
5:53 AM,46.0,42.1,86,29.74,10.0,WNW,9.2,-,0.02,,Overcast,300,2013-11-02 09:53:00
6:51 AM,44.6,42.8,93,29.75,6.0,NW,8.1,-,0.01,Rain,Light Rain,320,2013-11-02 10:51:00
6:53 AM,44.1,42.1,93,29.76,4.0,NNW,8.1,-,0.02,Rain,Rain,330,2013-11-02 10:53:00
7:00 AM,44.6,41.0,87,29.75,2.5,NW,11.5,17.3,0.01,Rain,Rain,310,2013-11-02 11:00:00
7:07 AM,44.6,42.8,93,29.75,3.0,WNW,8.1,23.0,0.03,Rain,Rain,300,2013-11-02 11:07:00
7:34 AM,44.6,42.8,93,29.76,2.5,WNW,8.1,-,0.06,Rain,Light Rain,290,2013-11-02 11:34:00
7:41 AM,44.6,42.8,93,29.76,6.0,Variable,4.6,-,0.07,Rain,Light Rain,0,2013-11-02 11:41:00
7:53 AM,46.0,42.1,86,29.77,10.0,Variable,6.9,-,0.07,,Overcast,0,2013-11-02 11:53:00
8:20 AM,46.4,42.8,87,29.77,10.0,NNW,6.9,-,N/A,,Overcast,330,2013-11-02 12:20:00
8:53 AM,45.0,41.0,86,29.80,7.0,Calm,Calm,-,0.00,Rain,Light Rain,0,2013-11-02 12:53:00
9:12 AM,44.6,42.8,93,29.80,5.0,NE,4.6,-,0.01,Rain,Light Rain,40,2013-11-02 13:12:00
9:18 AM,44.6,42.8,93,29.80,2.0,WNW,3.5,-,0.03,Rain,Rain,300,2013-11-02 13:18:00
9:22 AM,44.6,42.8,93,29.81,1.2,Calm,Calm,-,0.05,Rain,Rain,0,2013-11-02 13:22:00
9:53 AM,43.0,42.1,97,29.84,1.2,NE,4.6,-,0.18,Rain,Rain,50,2013-11-02 13:53:00
9:56 AM,42.8,42.8,100,29.83,1.5,Variable,5.8,-,0.01,Rain,Rain,0,2013-11-02 13:56:00
10:02 AM,42.8,41.0,93,29.83,3.0,ENE,8.1,-,0.01,Rain,Light Rain,60,2013-11-02 14:02:00
10:29 AM,42.8,42.8,100,29.84,3.0,NE,3.5,-,0.03,Rain,Light Rain,40,2013-11-02 14:29:00
10:53 AM,43.0,43.0,100,29.86,3.0,Calm,Calm,-,0.06,Rain,Rain,0,2013-11-02 14:53:00
11:33 AM,46.4,42.8,87,29.85,10.0,ENE,3.5,-,0.00,,Overcast,70,2013-11-02 15:33:00
11:53 AM,46.0,42.1,86,29.88,10.0,Calm,Calm,-,0.00,,Overcast,0,2013-11-02 15:53:00
12:28 PM,44.6,39.2,81,29.89,2.5,Calm,Calm,-,0.03,Rain,Light Rain,0,2013-11-02 16:28:00
12:53 PM,44.1,42.1,93,29.91,10.0,Calm,Calm,-,0.05,Rain,Light Rain,0,2013-11-02 16:53:00
1:23 PM,44.6,42.8,93,29.90,2.5,Calm,Calm,-,0.02,Rain,Light Rain,0,2013-11-02 17:23:00
1:30 PM,44.6,42.8,93,29.90,8.0,Calm,Calm,-,0.02,Rain,Light Rain,0,2013-11-02 17:30:00
1:37 PM,44.6,42.8,93,29.90,10.0,Calm,Calm,-,0.02,,Overcast,0,2013-11-02 17:37:00
1:53 PM,46.9,42.1,83,29.91,10.0,Variable,5.8,-,0.02,,Overcast,0,2013-11-02 17:53:00
2:53 PM,46.9,39.9,77,29.93,10.0,Variable,5.8,-,0.01,,Overcast,0,2013-11-02 18:53:00
3:53 PM,46.9,37.9,71,29.95,10.0,WNW,11.5,19.6,N/A,,Mostly Cloudy,300,2013-11-02 19:53:00
4:53 PM,46.0,37.9,73,29.97,10.0,NW,10.4,18.4,N/A,,Mostly Cloudy,310,2013-11-02 20:53:00
5:53 PM,46.0,39.0,76,29.99,10.0,NNW,5.8,20.7,N/A,,Mostly Cloudy,330,2013-11-02 21:53:00
6:00 PM,44.6,39.2,81,29.98,10.0,NW,10.4,19.6,N/A,,Mostly Cloudy,310,2013-11-02 22:00:00
6:53 PM,45.0,39.0,80,30.01,10.0,Variable,5.8,-,0.00,,Overcast,0,2013-11-02 22:53:00
7:30 PM,44.6,39.2,81,30.01,10.0,Variable,6.9,-,N/A,,Overcast,0,2013-11-02 23:30:00
7:48 PM,46.4,37.4,71,30.02,10.0,NW,8.1,-,N/A,,Overcast,320,2013-11-02 23:48:00
7:53 PM,45.0,37.9,76,30.04,10.0,NW,6.9,-,N/A,,Overcast,320,2013-11-02 23:53:00
8:34 PM,46.4,37.4,71,30.04,10.0,Variable,5.8,-,N/A,,Overcast,0,2013-11-03 00:34:00
8:45 PM,44.6,37.4,76,30.05,9.0,Variable,5.8,-,N/A,,Overcast,0,2013-11-03 00:45:00
8:53 PM,45.0,39.0,80,30.06,8.0,NW,9.2,-,0.00,Rain,Light Rain,310,2013-11-03 00:53:00
9:53 PM,43.0,39.0,86,30.08,4.0,ENE,8.1,-,0.02,Rain,Light Rain,60,2013-11-03 01:53:00
10:53 PM,41.0,39.0,93,30.10,10.0,Calm,Calm,-,0.03,,Overcast,0,2013-11-03 02:53:00
11:53 PM,39.9,39.0,97,30.11,9.0,Calm,Calm,-,N/A,,Overcast,0,2013-11-03 03:53:00